SCP
0 0 0 0 0 0 0 0 0 0 0 0 0 0 0 0 0 0 0 0 -0 -0 -0 -0 0 0 0 0 -0 0 0 0 -0 -0 0 0 0 0 0 0 0 0 0 0
0 0 0 0 0 0 0 0 0 0 0 0 0 0 0 0 0 0 0 0 0 0 -0 -0 0 -0 0 0 0 0 0 0 -0 0 0 0 0 0 0 0 0 0 0 -0
0 0 0 0 0 0 0 0 0 0 0 0 0 0 0 0 0 0 -0 0 0 0 -0 -0 0 -0 0 0 0 0 0 0 -0 0 0 0 0 0 0 0 0 0 0 -0
0 0 0 0 0 0 0 0 0 0 0 0 0 0 0 0 0 0 0 0 -0 -0 0 -0 0 -0 -0 0 -0 0 0 0 -0 0 0 0 0 0 0 0 0 0 0 -0
0 0 0 0 0 0 0 0 0 0 0 0 0 0 0 0 0 0 0 0 0 -0 0 0 0 -0 -0 -0 0 0 0 0 0 -0 0 0 0 0 0 0 0 -0 -0 -0
0 0 0 0 0 0 0 0 0 0 0 0 0 0 0 0 0 0 0 0 -0 0 0 0 -0 -0 -0 -0 -0 -0 0 0 -0 0 -0 0 0 0 0 0 0 0 -0 -0
0 0 0 0 0 0 0 0 0 0 0 0 0 0 0 -0 0 0 0 0 0 0 0 -0 -0 -0 -0 -0 -0 -0 -0 -0 0 0 0 0 0 0 0 0 0 0 0 0
0 0 0 0 0 0 0 0 0 0 0 0 0 0 0 0 0 0 0 0 0 -0 0 0 0 0 -0 -0 0 0 -0 -0 0 0 0 0 0 0 0 0 0 0 0 0
0 0 0 0 0 0 0 0 0 0 0 0 0 0 0 0 0 0 0 0 0 -0 -0 0 0 0 0 0 0 0 -0 0 -0 -0 0 0 0 0 0 0 0 0 0 0
0 0 0 0 0 0 0 0 0 0 0 0 0 0 0 0 0 0 0 0 0 -0 -0 0 0 0 0 0 0 0 0 -0 -0 0 0 0 -0 0 0 0 0 0 0 0
0 0 0 0 0 0 0 0 0 0 0 0 0 0 0 0 0 0 0 0 0 0 0 0 0 0 0 0 0 0 0 0 0 0 0 -0 0 0 0 0 0 0 0 0
0 0 0 0 0 0 0 0 0 0 0 0 0 0 0 0 0 0 0 0 0 0 0 0 0 0 0 0 0 0 0 0 0 0 0 0 0 0 0 0 0 0 0 0
0 0 0 0 0 0 0 0 0 0 0 0 0 0 0 0 0 0 0 0 0 0 0 0 0 0 0 0 0 0 0 0 -0 0 0 0 0 0 0 0 0 0 0 0
0 0 0 0 0 0 0 0 0 0 0 0 0 0 0 0 0 0 0 0 0 0 0 0 0 0 0 -0 0 0 0 0 -0 0 0 0 0 0 0 0 0 0 0 0
0 0 0 0 0 0 0 0 0 0 0 0 0 0 0 0 0 0 0 0 0 0 0 0 0 0 0 0 -0 0 0 0 0 -0 0 0 0 0 0 0 0 0 0 0
0 0 0 0 0 0 0 0 0 0 0 0 0 0 0 0 0 -0 -0 0 0 0 -0 -0 -0 0 0 -0 -0 -0 0 0 0 0 0 -0 -0 -0 -0 0 0 0 0 0
-0 0 0 0 0 0 0 0 0 0 0 0 0 0 0 -0 0 0 0 0 0 0 -0 -0 -0 0 0 -0 -0 -0 -0 -0 0 0 0 0 -0 -0 0 0 0 0 0 0
0 0 0 0 0 0 0 0 -0 0 0 0 0 0 -0 0 0 0 0 0 0 0 0 -0 -0 0 0 -0 -0 -0 -0 -0 0 0 0 -0 0 -0 0 0 0 0 0 0
-0 -0 0 0 0 0 0 0 0 0 0 0 0 0 0 0 0 0 0 0 0 0 0 0 0 -0 -0 -0 -0 -0 -0 -0 -0 0 -0 0 0 -0 -0 -0 -0 -0 -0 -0
0 0 0 0 0 0 0 0 0 0 0 0 0 0 0 0 0 0 0 0 0 0 0 0 0 -0 -0 -0 -0 -0 -0 0 -0 0 -0 0 -0 -0 0 -0 -0 -0 -0 -0
0 0 0 0 0 0 0 0 0 0 0 0 0 0 0 0 0 0 0 0 0 -0 0 0 0 0 0 0 -0 -0 -0 -0 -0 0 0 0 -0 -0 0 0 0 0 0 0
0 0 0 0 0 0 0 0 0 0 0 0 0 0 0 0 0 0 0 0 0 -0 -0 -0 -0 0 0 0 -0 -0 0 -0 -0 0 -0 -0 -0 -0 -0 0 0 0 0 0
0 0 0 0 0 0 0 0 0 0 0 0 0 0 0 0 0 0 0 0 0 0 0 0 -0 0 0 0 0 0 0 -0 0 -0 -0 -0 -0 -0 0 0 0 0 0 0
0 0 0 0 0 0 0 0 0 -0 0 0 0 0 0 0 0 0 0 0 0 0 0 0 0 0 0 0 0 0 0 0 -0 0 0 -0 -0 -0 -0 -0 -0 0 0 0
0 0 0 0 0 0 0 0 0 0 0 0 0 0 0 0 0 0 0 0 0 0 0 0 0 0 0 0 -0 0 0 0 0 0 0 0 -0 -0 -0 -0 -0 0 0 0
0 0 0 0 0 0 0 0 -0 0 0 0 0 0 0 0 0 0 0 0 0 0 0 0 0 0 0 -0 -0 0 0 0 0 0 0 0 -0 -0 -0 0 0 0 0 0
0 0 0 0 0 0 0 0 0 0 0 0 0 0 0 0 0 0 0 0 0 0 0 0 0 -0 0 -0 -0 0 0 0 0 0 0 0 0 0 0 0 0 0 0 0
Wind_Speed_500mb
64 66 65 63 65 65 57 20 5 5 7 7 4 3 12 33 29 37 15 8 10 6 9 10 9 9 6 10 3 6 5 2 7 15 24 27 9 12 8 5 12 10 3 15
63 66 65 58 59 56 57 34 12 14 14 5 7 14 19 18 27 23 12 9 3 5 5 8 12 6 14 6 3 6 7 3 7 15 3 4 10 4 3 8 12 15 20 16
60 63 64 57 54 46 40 15 8 12 11 31 4 11 9 16 33 29 35 18 1 6 14 10 11 9 7 14 11 11 12 7 14 9 10 13 15 16 16 3 13 26 27 42
59 59 62 59 51 44 26 11 5 9 8 17 18 14 14 29 19 11 32 7 16 14 11 17 8 7 10 12 20 12 10 8 19 24 31 30 33 32 22 17 18 11 14 28
57 54 56 58 56 47 14 15 13 17 29 25 11 13 6 29 32 21 12 15 31 12 11 16 25 26 19 13 11 20 16 9 15 25 33 36 37 31 27 26 30 22 30 45
55 51 50 53 55 48 17 24 12 14 15 8 12 6 30 31 34 20 37 29 28 18 28 38 54 62 58 28 20 15 18 10 4 14 29 8 9 28 33 14 15 7 14 22
54 50 48 48 48 43 32 27 18 12 11 14 17 33 33 33 35 19 41 39 14 28 74 74 44 48 47 35 33 33 15 11 8 11 10 6 7 23 5 27 23 20 31 27
55 50 47 44 44 43 35 23 10 12 11 25 34 21 34 41 44 22 32 44 53 57 36 8 14 8 7 9 12 15 23 13 5 7 2 15 5 13 13 10 10 12 5 9
55 47 44 42 42 42 42 31 13 17 19 10 16 42 32 21 18 19 26 39 37 41 5 5 6 5 8 6 8 9 3 13 13 6 6 7 7 23 38 11 9 11 17 5
52 44 41 41 40 41 44 38 12 15 24 40 24 11 19 19 9 14 16 36 20 31 10 6 5 7 10 9 13 9 5 6 16 10 4 6 18 42 62 13 2 29 30 13
51 41 40 41 39 38 40 44 6 15 21 62 64 51 39 49 29 6 18 17 10 9 12 7 6 6 6 7 7 10 6 6 5 6 6 5 19 48 6 8 24 34 25 27
50 44 41 40 39 35 37 51 40 29 37 49 71 69 50 48 46 38 5 5 4 7 5 4 6 6 5 9 7 7 3 3 8 7 4 22 43 24 48 48 25 31 22 56
48 47 44 42 40 37 39 54 50 29 24 50 24 12 19 29 15 18 9 5 6 8 7 6 5 8 6 7 6 6 7 22 5 6 8 20 38 49 56 48 36 35 48 74
47 45 44 43 42 42 44 54 51 27 17 12 19 30 47 20 28 19 17 18 12 13 11 8 5 5 8 4 8 5 4 14 10 6 11 16 43 51 65 63 58 44 59 66
49 45 43 41 40 43 49 51 32 25 23 9 31 57 2 12 18 24 26 23 10 6 6 6 6 7 5 1 5 6 3 6 6 5 14 2 14 24 40 52 57 51 54 55
46 40 40 39 35 39 43 8 4 2 36 12 8 24 16 9 20 29 31 29 14 9 7 12 11 15 6 4 4 13 24 22 11 9 12 13 10 19 32 33 49 47 55 55
46 42 40 37 36 32 23 10 7 12 18 9 12 13 14 11 32 34 35 33 18 13 8 8 8 9 9 4 2 10 11 12 27 24 19 30 41 37 41 31 34 39 41 46
45 38 40 35 32 31 21 11 21 20 23 8 5 8 15 9 10 8 17 15 18 14 9 10 6 5 4 3 5 4 4 9 21 19 23 22 25 32 26 28 25 36 41 40
35 31 29 17 3 4 8 14 32 29 21 6 7 4 7 3 8 9 7 14 5 11 7 6 5 3 1 8 9 3 6 8 15 15 12 20 27 29 29 31 35 42 44 38
34 13 7 3 4 12 14 4 8 8 10 9 9 11 7 6 5 9 8 4 4 1 9 3 5 5 7 16 9 6 9 12 6 19 8 10 17 24 30 29 33 38 49 49
22 16 7 8 9 8 7 8 10 13 7 15 17 30 10 13 6 7 3 3 4 3 8 6 1 3 8 20 17 7 6 12 14 13 15 16 22 26 33 38 35 34 37 47
36 28 33 17 5 9 6 7 8 10 9 14 12 20 30 10 12 4 2 2 5 7 14 4 3 7 31 26 15 7 25 21 18 10 20 21 21 19 27 36 40 42 44 49
11 5 7 6 6 5 9 9 7 6 10 19 17 6 20 12 9 4 5 4 7 8 6 5 6 15 29 37 28 22 15 17 20 23 19 24 29 26 28 26 29 35 43 47
7 7 8 9 9 10 10 9 6 20 28 38 29 19 14 10 6 6 5 7 3 2 2 8 4 14 23 30 24 19 17 13 12 20 23 15 12 24 34 27 27 28 39 38
9 9 8 12 26 24 30 34 37 40 35 33 15 3 9 2 6 5 4 3 3 10 9 6 17 25 27 12 15 23 19 18 12 13 22 20 14 18 30 32 33 24 30 35
10 15 9 20 19 16 21 34 39 52 48 17 10 8 2 7 8 6 11 11 10 8 7 17 29 26 41 35 21 25 24 24 20 17 20 28 20 16 21 22 25 28 21 28
11 16 28 45 47 40 47 46 49 55 37 5 8 6 5 6 4 6 8 10 8 18 17 16 26 34 36 35 30 25 28 32 27 21 15 15 21 26 19 17 18 22 22 21
Wind_Direction_500mb
358 359 358 357 355 355 4 2 10 356 349 337 7 301 288 318 311 320 277 282 331 337 287 283 316 348 252 29 96 340 317 126 276 248 246 270 263 243 159 232 259 237 110 274
355 356 359 358 358 355 353 343 315 16 315 44 309 302 316 309 310 313 318 299 140 182 264 324 324 302 264 177 354 348 344 307 299 312 316 219 232 185 37 256 235 239 194 251
353 353 355 359 360 353 348 343 349 338 346 352 320 314 291 313 319 311 339 292 143 306 297 237 264 262 270 197 184 295 332 227 241 224 260 322 277 286 305 299 229 230 233 255
352 353 354 355 0 357 358 0 311 10 304 326 316 303 278 323 329 310 310 308 339 337 292 313 266 299 277 213 215 174 151 249 242 242 262 270 268 264 264 265 268 257 270 275
347 350 353 353 355 3 19 357 348 322 293 288 296 301 318 316 337 322 306 319 314 294 261 240 273 277 266 227 197 167 183 237 252 289 278 254 245 238 239 252 274 279 267 275
341 344 347 350 352 356 1 341 316 303 277 282 306 259 320 315 334 298 313 308 314 285 275 285 275 263 255 242 209 201 178 210 225 273 296 138 265 228 224 204 220 242 251 270
334 339 340 345 347 347 340 343 320 290 282 304 302 302 306 324 316 306 313 317 312 297 306 304 286 263 249 235 238 226 207 194 174 266 253 224 42 36 7 201 222 247 256 257
328 330 336 338 341 343 338 339 302 285 280 302 291 309 318 315 315 303 293 311 316 323 306 320 327 329 27 333 38 327 212 195 222 253 305 291 178 39 2 33 222 268 344 142
326 322 327 332 335 334 331 337 305 270 296 249 287 312 296 308 314 318 311 325 338 349 327 8 314 326 304 317 308 264 17 162 193 272 228 249 91 299 320 303 214 284 319 60
323 317 320 325 328 328 325 332 314 263 272 280 269 286 306 292 303 300 310 332 334 7 355 357 336 299 1 341 323 335 79 149 205 222 250 281 313 329 308 196 152 318 326 5
319 311 316 319 322 324 316 323 320 268 258 280 280 277 271 286 285 267 322 331 358 337 7 2 325 297 327 306 305 339 351 293 214 189 252 11 324 298 100 328 335 310 330 73
315 312 308 314 317 318 314 308 321 283 263 264 285 290 280 271 279 259 267 266 265 304 321 343 306 294 310 309 330 350 52 319 314 42 50 279 289 12 18 10 352 316 9 63
315 310 308 306 309 310 308 305 311 301 279 298 280 292 309 297 280 286 236 236 246 255 300 283 276 283 337 333 312 303 316 348 43 226 4 312 350 15 22 5 6 354 50 61
315 311 309 307 302 304 305 303 305 267 270 276 284 310 313 296 237 252 232 266 256 271 274 242 266 272 246 307 289 321 297 326 342 321 1 335 356 18 16 16 14 32 50 53
312 312 315 307 299 302 306 306 292 255 212 287 297 315 266 309 236 233 225 234 256 262 269 234 240 248 242 28 289 317 27 320 7 348 296 271 317 1 18 20 358 26 56 54
316 315 319 313 307 309 320 326 348 158 203 288 304 307 299 298 227 213 229 239 241 235 250 250 269 253 177 80 354 284 11 23 9 256 315 20 112 44 17 14 357 51 55 54
311 309 309 304 303 296 283 235 185 149 206 272 298 291 284 283 215 215 222 233 227 220 255 249 246 273 196 103 5 304 34 39 17 31 42 29 45 45 49 48 19 46 54 47
314 309 301 296 293 285 286 246 193 195 203 246 269 274 308 211 194 234 208 186 196 224 246 258 245 337 52 52 246 208 164 349 20 45 56 62 48 49 35 39 31 38 33 26
322 316 311 300 219 198 281 248 213 211 211 243 242 244 266 284 6 263 212 205 192 195 219 250 140 346 131 224 198 121 38 19 48 60 74 42 52 61 52 50 45 46 35 30
331 330 334 134 57 322 320 215 211 213 231 234 251 228 266 319 18 355 297 237 234 203 240 203 90 232 223 214 187 121 98 78 91 101 95 87 78 77 59 62 63 51 43 44
1 344 298 293 334 296 242 217 180 189 230 221 235 219 220 234 148 216 260 235 314 0 274 130 253 293 225 183 194 230 258 197 103 107 92 75 87 75 68 65 53 43 51 43
318 299 290 305 251 238 247 217 198 195 232 206 202 216 200 226 196 134 311 163 26 265 331 27 271 229 186 178 199 120 104 102 148 96 91 81 69 66 62 48 52 54 46 34
326 273 246 220 236 250 217 218 238 234 216 197 205 179 174 168 169 108 80 73 237 323 25 255 225 164 167 143 145 121 115 119 80 133 89 106 98 73 68 52 44 44 42 32
292 242 252 211 208 240 206 221 250 289 309 312 248 177 164 161 114 148 145 227 94 292 340 243 274 136 175 174 166 163 146 122 117 87 144 114 83 74 54 46 38 48 45 36
263 258 241 227 228 254 276 284 282 301 324 313 247 114 171 139 133 192 132 152 233 198 232 236 187 170 167 194 190 177 160 155 132 103 133 111 109 76 58 51 48 59 43 34
240 238 270 283 296 281 306 314 315 325 334 316 24 349 265 190 160 144 204 151 220 241 216 213 174 169 178 202 223 199 174 174 159 141 115 150 124 92 83 59 51 48 34 30
235 243 246 259 272 277 287 293 295 302 309 205 125 225 252 337 181 204 178 198 211 208 218 212 209 202 208 210 220 193 170 169 170 154 151 129 142 135 112 102 84 42 33 24
Wind_Speed_850mb
64 66 65 63 65 65 57 20 5 5 7 7 4 3 12 33 29 37 15 8 10 6 9 10 9 9 6 10 3 6 5 2 7 15 24 27 9 12 8 5 12 10 3 15
63 66 65 58 59 56 57 34 12 14 14 5 7 14 19 18 27 23 12 9 3 5 5 8 12 6 14 6 3 6 7 3 7 15 3 4 10 4 3 8 12 15 20 16
60 63 64 57 54 46 40 15 8 12 11 31 4 11 9 16 33 29 35 18 1 6 14 10 11 9 7 14 11 11 12 7 14 9 10 13 15 16 16 3 13 26 27 42
59 59 62 59 51 44 26 11 5 9 8 17 18 14 14 29 19 11 32 7 16 14 11 17 8 7 10 12 20 12 10 8 19 24 31 30 33 32 22 17 18 11 14 28
57 54 56 58 56 47 14 15 13 17 29 25 11 13 6 29 32 21 12 15 31 12 11 16 25 26 19 13 11 20 16 9 15 25 33 36 37 31 27 26 30 22 30 45
55 51 50 53 55 48 17 24 12 14 15 8 12 6 30 31 34 20 37 29 28 18 28 38 54 62 58 28 20 15 18 10 4 14 29 8 9 28 33 14 15 7 14 22
54 50 48 48 48 43 32 27 18 12 11 14 17 33 33 33 35 19 41 39 14 28 74 74 44 48 47 35 33 33 15 11 8 11 10 6 7 23 5 27 23 20 31 27
55 50 47 44 44 43 35 23 10 12 11 25 34 21 34 41 44 22 32 44 53 57 36 8 14 8 7 9 12 15 23 13 5 7 2 15 5 13 13 10 10 12 5 9
55 47 44 42 42 42 42 31 13 17 19 10 16 42 32 21 18 19 26 39 37 41 5 5 6 5 8 6 8 9 3 13 13 6 6 7 7 23 38 11 9 11 17 5
52 44 41 41 40 41 44 38 12 15 24 40 24 11 19 19 9 14 16 36 20 31 10 6 5 7 10 9 13 9 5 6 16 10 4 6 18 42 62 13 2 29 30 13
51 41 40 41 39 38 40 44 6 15 21 62 64 51 39 49 29 6 18 17 10 9 12 7 6 6 6 7 7 10 6 6 5 6 6 5 19 48 6 8 24 34 25 27
50 44 41 40 39 35 37 51 40 29 37 49 71 69 50 48 46 38 5 5 4 7 5 4 6 6 5 9 7 7 3 3 8 7 4 22 43 24 48 48 25 31 22 56
48 47 44 42 40 37 39 54 50 29 24 50 24 12 19 29 15 18 9 5 6 8 7 6 5 8 6 7 6 6 7 22 5 6 8 20 38 49 56 48 36 35 48 74
47 45 44 43 42 42 44 54 51 27 17 12 19 30 47 20 28 19 17 18 12 13 11 8 5 5 8 4 8 5 4 14 10 6 11 16 43 51 65 63 58 44 59 66
49 45 43 41 40 43 49 51 32 25 23 9 31 57 2 12 18 24 26 23 10 6 6 6 6 7 5 1 5 6 3 6 6 5 14 2 14 24 40 52 57 51 54 55
46 40 40 39 35 39 43 8 4 2 36 12 8 24 16 9 20 29 31 29 14 9 7 12 11 15 6 4 4 13 24 22 11 9 12 13 10 19 32 33 49 47 55 55
46 42 40 37 36 32 23 10 7 12 18 9 12 13 14 11 32 34 35 33 18 13 8 8 8 9 9 4 2 10 11 12 27 24 19 30 41 37 41 31 34 39 41 46
45 38 40 35 32 31 21 11 21 20 23 8 5 8 15 9 10 8 17 15 18 14 9 10 6 5 4 3 5 4 4 9 21 19 23 22 25 32 26 28 25 36 41 40
35 31 29 17 3 4 8 14 32 29 21 6 7 4 7 3 8 9 7 14 5 11 7 6 5 3 1 8 9 3 6 8 15 15 12 20 27 29 29 31 35 42 44 38
34 13 7 3 4 12 14 4 8 8 10 9 9 11 7 6 5 9 8 4 4 1 9 3 5 5 7 16 9 6 9 12 6 19 8 10 17 24 30 29 33 38 49 49
22 16 7 8 9 8 7 8 10 13 7 15 17 30 10 13 6 7 3 3 4 3 8 6 1 3 8 20 17 7 6 12 14 13 15 16 22 26 33 38 35 34 37 47
36 28 33 17 5 9 6 7 8 10 9 14 12 20 30 10 12 4 2 2 5 7 14 4 3 7 31 26 15 7 25 21 18 10 20 21 21 19 27 36 40 42 44 49
11 5 7 6 6 5 9 9 7 6 10 19 17 6 20 12 9 4 5 4 7 8 6 5 6 15 29 37 28 22 15 17 20 23 19 24 29 26 28 26 29 35 43 47
7 7 8 9 9 10 10 9 6 20 28 38 29 19 14 10 6 6 5 7 3 2 2 8 4 14 23 30 24 19 17 13 12 20 23 15 12 24 34 27 27 28 39 38
9 9 8 12 26 24 30 34 37 40 35 33 15 3 9 2 6 5 4 3 3 10 9 6 17 25 27 12 15 23 19 18 12 13 22 20 14 18 30 32 33 24 30 35
10 15 9 20 19 16 21 34 39 52 48 17 10 8 2 7 8 6 11 11 10 8 7 17 29 26 41 35 21 25 24 24 20 17 20 28 20 16 21 22 25 28 21 28
11 16 28 45 47 40 47 46 49 55 37 5 8 6 5 6 4 6 8 10 8 18 17 16 26 34 36 35 30 25 28 32 27 21 15 15 21 26 19 17 18 22 22 21
Wind_Direction_850mb
358 359 358 357 355 355 4 2 10 356 349 337 7 301 288 318 311 320 277 282 331 337 287 283 316 348 252 29 96 340 317 126 276 248 246 270 263 243 159 232 259 237 110 274
355 356 359 358 358 355 353 343 315 16 315 44 309 302 316 309 310 313 318 299 140 182 264 324 324 302 264 177 354 348 344 307 299 312 316 219 232 185 37 256 235 239 194 251
353 353 355 359 360 353 348 343 349 338 346 352 320 314 291 313 319 311 339 292 143 306 297 237 264 262 270 197 184 295 332 227 241 224 260 322 277 286 305 299 229 230 233 255
352 353 354 355 0 357 358 0 311 10 304 326 316 303 278 323 329 310 310 308 339 337 292 313 266 299 277 213 215 174 151 249 242 242 262 270 268 264 264 265 268 257 270 275
347 350 353 353 355 3 19 357 348 322 293 288 296 301 318 316 337 322 306 319 314 294 261 240 273 277 266 227 197 167 183 237 252 289 278 254 245 238 239 252 274 279 267 275
341 344 347 350 352 356 1 341 316 303 277 282 306 259 320 315 334 298 313 308 314 285 275 285 275 263 255 242 209 201 178 210 225 273 296 138 265 228 224 204 220 242 251 270
334 339 340 345 347 347 340 343 320 290 282 304 302 302 306 324 316 306 313 317 312 297 306 304 286 263 249 235 238 226 207 194 174 266 253 224 42 36 7 201 222 247 256 257
328 330 336 338 341 343 338 339 302 285 280 302 291 309 318 315 315 303 293 311 316 323 306 320 327 329 27 333 38 327 212 195 222 253 305 291 178 39 2 33 222 268 344 142
326 322 327 332 335 334 331 337 305 270 296 249 287 312 296 308 314 318 311 325 338 349 327 8 314 326 304 317 308 264 17 162 193 272 228 249 91 299 320 303 214 284 319 60
323 317 320 325 328 328 325 332 314 263 272 280 269 286 306 292 303 300 310 332 334 7 355 357 336 299 1 341 323 335 79 149 205 222 250 281 313 329 308 196 152 318 326 5
319 311 316 319 322 324 316 323 320 268 258 280 280 277 271 286 285 267 322 331 358 337 7 2 325 297 327 306 305 339 351 293 214 189 252 11 324 298 100 328 335 310 330 73
315 312 308 314 317 318 314 308 321 283 263 264 285 290 280 271 279 259 267 266 265 304 321 343 306 294 310 309 330 350 52 319 314 42 50 279 289 12 18 10 352 316 9 63
315 310 308 306 309 310 308 305 311 301 279 298 280 292 309 297 280 286 236 236 246 255 300 283 276 283 337 333 312 303 316 348 43 226 4 312 350 15 22 5 6 354 50 61
315 311 309 307 302 304 305 303 305 267 270 276 284 310 313 296 237 252 232 266 256 271 274 242 266 272 246 307 289 321 297 326 342 321 1 335 356 18 16 16 14 32 50 53
312 312 315 307 299 302 306 306 292 255 212 287 297 315 266 309 236 233 225 234 256 262 269 234 240 248 242 28 289 317 27 320 7 348 296 271 317 1 18 20 358 26 56 54
316 315 319 313 307 309 320 326 348 158 203 288 304 307 299 298 227 213 229 239 241 235 250 250 269 253 177 80 354 284 11 23 9 256 315 20 112 44 17 14 357 51 55 54
311 309 309 304 303 296 283 235 185 149 206 272 298 291 284 283 215 215 222 233 227 220 255 249 246 273 196 103 5 304 34 39 17 31 42 29 45 45 49 48 19 46 54 47
314 309 301 296 293 285 286 246 193 195 203 246 269 274 308 211 194 234 208 186 196 224 246 258 245 337 52 52 246 208 164 349 20 45 56 62 48 49 35 39 31 38 33 26
322 316 311 300 219 198 281 248 213 211 211 243 242 244 266 284 6 263 212 205 192 195 219 250 140 346 131 224 198 121 38 19 48 60 74 42 52 61 52 50 45 46 35 30
331 330 334 134 57 322 320 215 211 213 231 234 251 228 266 319 18 355 297 237 234 203 240 203 90 232 223 214 187 121 98 78 91 101 95 87 78 77 59 62 63 51 43 44
1 344 298 293 334 296 242 217 180 189 230 221 235 219 220 234 148 216 260 235 314 0 274 130 253 293 225 183 194 230 258 197 103 107 92 75 87 75 68 65 53 43 51 43
318 299 290 305 251 238 247 217 198 195 232 206 202 216 200 226 196 134 311 163 26 265 331 27 271 229 186 178 199 120 104 102 148 96 91 81 69 66 62 48 52 54 46 34
326 273 246 220 236 250 217 218 238 234 216 197 205 179 174 168 169 108 80 73 237 323 25 255 225 164 167 143 145 121 115 119 80 133 89 106 98 73 68 52 44 44 42 32
292 242 252 211 208 240 206 221 250 289 309 312 248 177 164 161 114 148 145 227 94 292 340 243 274 136 175 174 166 163 146 122 117 87 144 114 83 74 54 46 38 48 45 36
263 258 241 227 228 254 276 284 282 301 324 313 247 114 171 139 133 192 132 152 233 198 232 236 187 170 167 194 190 177 160 155 132 103 133 111 109 76 58 51 48 59 43 34
240 238 270 283 296 281 306 314 315 325 334 316 24 349 265 190 160 144 204 151 220 241 216 213 174 169 178 202 223 199 174 174 159 141 115 150 124 92 83 59 51 48 34 30
235 243 246 259 272 277 287 293 295 302 309 205 125 225 252 337 181 204 178 198 211 208 218 212 209 202 208 210 220 193 170 169 170 154 151 129 142 135 112 102 84 42 33 24